View from above orbital plane
|
View from above satellite
|
Ground track
|
The orbit data is extracted from the following two-line orbital elements,
1 40014U 14033E 18116.76765991 .00000579 00000-0 58044-4 0 9993
2 40014 97.9737 51.2876 0032144 8.3976 351.7798 14.95025459210051
Epoch (UTC): | 26 April 2018 18:25:25 |
Eccentricity: | 0.0032144 |
inclination: | 97.9737° |
perigee height: | 560 km |
apogee height: | 604 km |
right ascension of ascending node: | 51.2876° |
argument of perigee: | 8.3976° |
revolutions per day: | 14.95025459 |
mean anomaly at epoch: | 351.7798° |
orbit number at epoch: | 21005 |
The dashed part of the orbit path shows where the satellite is in the earth's shadow,
|
|